Temp
-6 -6 -6 -7 -7 -6 -6 -6 -6 -6 -6 -6 -7 -7 -7 -7 -7 -7 -7 -7 -7 -7 -7 -7 -7 -7 -6 -6 -6 -7 -7 -6 -6 -6 -6 -6 -6 -6 -6 -6 -6 -6 -6 -6 -6 -6 -6 -7 -7
-6 -6 -7 -7 -7 -7 -6 -6 -6 -6 -6 -6 -7 -7 -7 -7 -7 -8 -7 -7 -7 -7 -7 -7 -7 -7 -6 -6 -6 -7 -7 -7 -6 -6 -6 -6 -6 -6 -6 -6 -6 -6 -6 -6 -6 -6 -6 -7 -7
-6 -7 -6 -7 -7 -6 -6 -6 -6 -6 -6 -7 -7 -7 -7 -7 -7 -8 -8 -7 -7 -7 -7 -7 -7 -6 -6 -6 -6 -7 -7 -7 -6 -6 -6 -6 -6 -6 -6 -6 -6 -6 -6 -6 -6 -6 -6 -6 -7
-6 -6 -6 -6 -6 -7 -6 -6 -6 -6 -6 -6 -7 -7 -7 -7 -7 -7 -7 -7 -7 -7 -7 -7 -7 -6 -6 -6 -6 -6 -6 -7 -6 -6 -6 -6 -6 -6 -6 -6 -6 -6 -6 -6 -6 -6 -6 -7 -7
-6 -6 -6 -6 -6 -6 -6 -6 -6 -6 -6 -7 -7 -7 -7 -7 -7 -7 -7 -7 -7 -8 -7 -7 -7 -6 -6 -6 -6 -6 -6 -6 -6 -6 -6 -6 -6 -6 -6 -6 -6 -6 -6 -6 -6 -6 -6 -7 -7
-5 -6 -6 -6 -6 -6 -6 -6 -6 -6 -6 -6 -7 -7 -7 -7 -7 -7 -7 -7 -7 -7 -7 -7 -7 -7 -7 -7 -6 -6 -6 -6 -6 -6 -6 -6 -6 -7 -6 -6 -6 -6 -6 -6 -6 -6 -7 -7 -8
-6 -6 -5 -6 -6 -5 -6 -7 -6 -6 -6 -6 -6 -7 -7 -7 -6 -7 -7 -7 -7 -7 -7 -7 -6 -7 -7 -7 -6 -6 -6 -6 -6 -6 -6 -6 -7 -6 -6 -7 -6 -6 -6 -6 -7 -7 -8 -8 -8
-6 -5 -6 -6 -6 -7 -6 -7 -6 -7 -7 -7 -7 -7 -8 -6 -6 -7 -7 -6 -7 -7 -7 -7 -7 -7 -6 -7 -6 -6 -6 -6 -6 -6 -7 -6 -7 -6 -7 -6 -6 -6 -7 -7 -7 -7 -8 -8 -8
-6 -5 -5 -6 -6 -6 -6 -6 -6 -7 -7 -7 -7 -7 -8 -6 -7 -7 -7 -6 -6 -7 -7 -7 -7 -7 -7 -7 -7 -6 -6 -6 -6 -7 -7 -7 -7 -7 -7 -6 -6 -7 -7 -7 -7 -7 -8 -9 -9
-6 -5 -5 -6 -6 -6 -6 -6 -6 -7 -7 -7 -7 -7 -7 -7 -7 -6 -7 -7 -7 -7 -7 -6 -7 -7 -6 -6 -6 -6 -6 -6 -6 -7 -7 -6 -6 -6 -7 -6 -7 -7 -7 -7 -8 -8 -8 -9 -9
-6 -6 -6 -6 -6 -6 -6 -6 -6 -7 -7 -7 -7 -7 -7 -7 -7 -7 -7 -7 -7 -7 -6 -6 -6 -6 -6 -6 -6 -6 -6 -6 -7 -7 -7 -6 -6 -6 -6 -6 -7 -7 -8 -8 -8 -8 -8 -9 -8
-6 -6 -6 -6 -6 -6 -6 -6 -6 -6 -7 -7 -7 -7 -7 -7 -6 -7 -7 -7 -7 -7 -7 -6 -6 -6 -6 -6 -6 -6 -6 -6 -7 -7 -7 -6 -7 -6 -6 -6 -7 -8 -8 -8 -8 -8 -9 -8 -7
-6 -5 -6 -6 -6 -6 -7 -7 -6 -6 -7 -6 -6 -6 -7 -7 -7 -7 -7 -6 -6 -6 -6 -6 -7 -6 -6 -6 -7 -6 -6 -6 -7 -7 -7 -7 -7 -6 -7 -6 -7 -8 -8 -8 -8 -8 -9 -8 -8
-6 -5 -6 -6 -6 -6 -6 -6 -7 -6 -7 -6 -7 -6 -6 -7 -7 -7 -6 -6 -6 -6 -6 -6 -6 -7 -6 -6 -6 -7 -7 -7 -7 -7 -7 -7 -7 -6 -6 -6 -7 -8 -8 -8 -8 -8 -8 -8 -8
-7 -6 -6 -6 -6 -7 -6 -7 -6 -6 -7 -6 -6 -6 -6 -7 -7 -6 -6 -6 -6 -5 -6 -6 -7 -6 -7 -7 -7 -7 -7 -7 -7 -7 -7 -7 -7 -6 -6 -7 -8 -8 -8 -8 -8 -8 -8 -8 -8
-7 -7 -6 -6 -6 -6 -6 -6 -7 -7 -7 -6 -6 -6 -6 -7 -7 -6 -6 -6 -6 -6 -6 -6 -6 -6 -7 -7 -7 -7 -7 -7 -7 -7 -7 -7 -7 -6 -7 -7 -7 -8 -8 -8 -8 -8 -8 -8 -8
-7 -7 -6 -6 -7 -7 -7 -7 -7 -7 -7 -7 -6 -6 -6 -6 -7 -7 -7 -6 -6 -6 -6 -6 -6 -6 -6 -7 -7 -7 -7 -7 -7 -7 -7 -6 -7 -7 -7 -7 -7 -7 -7 -8 -8 -8 -8 -8 -8
-8 -7 -7 -7 -7 -7 -7 -7 -7 -7 -6 -7 -7 -7 -7 -7 -7 -7 -7 -7 -7 -6 -6 -6 -6 -6 -6 -7 -7 -7 -7 -7 -7 -7 -7 -7 -7 -8 -7 -8 -8 -8 -8 -8 -8 -8 -8 -8 -9
-8 -8 -7 -7 -7 -7 -7 -7 -7 -7 -7 -7 -7 -8 -7 -7 -7 -7 -7 -7 -7 -7 -7 -7 -6 -6 -6 -7 -7 -7 -7 -7 -7 -7 -7 -7 -7 -7 -7 -7 -8 -8 -8 -8 -8 -8 -8 -8 -8
-8 -8 -8 -7 -7 -7 -7 -7 -8 -8 -8 -7 -7 -7 -7 -7 -7 -7 -7 -8 -7 -7 -7 -7 -7 -6 -6 -7 -7 -7 -7 -7 -7 -7 -7 -7 -7 -7 -7 -7 -8 -8 -8 -8 -7 -8 -8 -8 -8
-9 -9 -8 -8 -7 -7 -7 -7 -7 -8 -8 -8 -8 -7 -7 -7 -7 -7 -7 -7 -8 -7 -7 -7 -7 -6 -7 -7 -7 -7 -7 -6 -6 -6 -6 -7 -7 -7 -7 -8 -8 -8 -8 -8 -7 -8 -8 -8 -8
-9 -9 -9 -9 -9 -8 -8 -8 -8 -7 -8 -8 -8 -8 -7 -7 -7 -7 -7 -7 -7 -7 -7 -7 -7 -7 -7 -7 -7 -7 -7 -6 -7 -6 -7 -7 -7 -7 -7 -8 -8 -8 -8 -7 -7 -8 -8 -8 -8
-10 -10 -10 -9 -9 -9 -9 -8 -8 -7 -7 -7 -8 -8 -8 -7 -6 -6 -7 -7 -7 -8 -7 -7 -7 -7 -7 -7 -7 -7 -7 -6 -6 -7 -7 -7 -7 -7 -7 -7 -8 -8 -7 -7 -7 -7 -7 -8 -8
-10 -10 -10 -10 -9 -10 -10 -9 -9 -9 -7 -7 -7 -8 -8 -8 -7 -6 -6 -6 -6 -7 -7 -7 -7 -7 -7 -7 -7 -7 -6 -6 -6 -6 -6 -6 -7 -7 -7 -7 -7 -7 -7 -7 -7 -6 -6 -7 -8
-10 -11 -10 -10 -10 -10 -11 -9 -9 -9 -9 -8 -7 -7 -7 -8 -8 -7 -8 -7 -7 -7 -7 -7 -7 -7 -7 -7 -7 -7 -6 -6 -6 -7 -6 -6 -7 -7 -6 -6 -7 -7 -7 -7 -7 -6 -7 -7 -7
-11 -10 -10 -10 -9 -9 -10 -9 -9 -9 -9 -8 -8 -8 -7 -7 -7 -8 -7 -7 -7 -6 -6 -6 -7 -7 -7 -7 -7 -8 -7 -7 -7 -7 -6 -6 -7 -7 -6 -6 -6 -6 -7 -6 -7 -7 -7 -7 -7
-11 -11 -10 -10 -9 -8 -8 -9 -9 -9 -8 -9 -9 -8 -8 -8 -7 -7 -7 -7 -6 -6 -6 -6 -6 -7 -7 -6 -6 -7 -7 -7 -7 -6 -7 -7 -7 -7 -6 -6 -6 -7 -6 -6 -6 -6 -6 -7 -7
-11 -11 -10 -10 -9 -9 -9 -9 -9 -9 -8 -9 -9 -9 -9 -8 -8 -7 -7 -8 -7 -6 -7 -7 -6 -7 -7 -7 -6 -7 -7 -7 -7 -7 -7 -7 -7 -6 -6 -6 -6 -6 -6 -6 -6 -6 -6 -6 -7
-11 -11 -11 -11 -10 -10 -10 -9 -10 -9 -9 -9 -9 -9 -9 -9 -8 -8 -7 -7 -7 -7 -7 -7 -6 -7 -7 -7 -7 -7 -6 -7 -7 -7 -7 -7 -7 -6 -6 -6 -6 -6 -6 -6 -6 -6 -6 -7 -7
-11 -11 -11 -11 -11 -11 -11 -10 -10 -10 -10 -10 -10 -9 -9 -8 -8 -8 -8 -8 -7 -8 -7 -7 -7 -7 -7 -8 -7 -7 -7 -7 -7 -7 -7 -7 -7 -7 -6 -6 -6 -6 -6 -6 -6 -6 -6 -6 -6
Height
5883 5883 5885 5885 5888 5886 5885 5885 5882 5881 5881 5880 5880 5879 5880 5881 5883 5886 5884 5884 5885 5886 5888 5890 5892 5894 5896 5897 5898 5899 5901 5903 5905 5905 5907 5908 5908 5908 5908 5909 5910 5909 5908 5909 5908 5909 5908 5907 5907
5883 5883 5884 5883 5885 5885 5886 5884 5881 5881 5880 5879 5878 5878 5879 5880 5880 5881 5882 5883 5883 5884 5887 5889 5892 5894 5896 5897 5897 5899 5901 5903 5905 5905 5907 5909 5909 5909 5910 5910 5910 5911 5910 5911 5909 5909 5909 5908 5909
5882 5881 5882 5882 5882 5885 5885 5884 5883 5881 5879 5877 5877 5877 5878 5879 5880 5880 5881 5882 5883 5884 5885 5887 5890 5893 5896 5897 5897 5898 5900 5903 5905 5905 5907 5909 5910 5911 5910 5911 5911 5912 5913 5912 5911 5912 5910 5911 5910
5883 5883 5883 5883 5882 5884 5884 5882 5881 5881 5879 5877 5876 5877 5877 5878 5879 5880 5880 5881 5883 5884 5886 5888 5890 5893 5895 5896 5896 5897 5901 5904 5905 5905 5908 5910 5911 5911 5912 5912 5913 5915 5915 5914 5914 5913 5913 5913 5911
5883 5883 5883 5883 5883 5883 5883 5882 5881 5881 5878 5877 5876 5876 5877 5878 5878 5879 5880 5882 5882 5884 5886 5888 5890 5892 5894 5896 5896 5898 5901 5904 5905 5908 5910 5912 5912 5912 5913 5914 5915 5917 5916 5916 5917 5917 5916 5915 5914
5881 5881 5881 5881 5883 5883 5884 5883 5882 5881 5879 5876 5876 5876 5877 5877 5878 5879 5880 5881 5883 5884 5885 5888 5888 5891 5894 5896 5897 5897 5902 5905 5908 5909 5911 5912 5913 5912 5914 5916 5918 5917 5917 5918 5919 5918 5918 5917 5914
5882 5880 5876 5879 5882 5884 5884 5883 5882 5882 5879 5876 5876 5876 5877 5878 5877 5878 5879 5881 5883 5884 5886 5887 5890 5892 5894 5896 5894 5897 5903 5906 5909 5910 5909 5912 5912 5914 5916 5917 5918 5919 5919 5920 5921 5920 5918 5916 5914
5882 5881 5880 5880 5882 5883 5883 5883 5883 5882 5879 5877 5877 5876 5877 5878 5878 5878 5880 5881 5883 5884 5886 5888 5890 5892 5894 5896 5895 5898 5903 5906 5908 5909 5911 5912 5913 5916 5917 5919 5920 5920 5922 5922 5921 5920 5919 5916 5914
5882 5880 5878 5878 5879 5881 5883 5882 5882 5882 5879 5877 5876 5876 5876 5877 5878 5878 5879 5880 5882 5884 5885 5887 5890 5893 5893 5896 5897 5900 5904 5908 5909 5911 5912 5913 5915 5917 5919 5921 5921 5922 5923 5922 5922 5921 5918 5915 5912
5881 5879 5877 5876 5878 5878 5882 5882 5881 5881 5879 5876 5876 5877 5876 5878 5879 5879 5879 5880 5882 5884 5885 5888 5890 5893 5894 5897 5900 5903 5906 5909 5910 5912 5913 5914 5916 5919 5921 5921 5923 5923 5923 5923 5922 5920 5917 5913 5909
5881 5879 5877 5876 5878 5879 5881 5881 5881 5880 5878 5876 5877 5878 5877 5876 5879 5880 5881 5881 5882 5883 5884 5887 5891 5893 5895 5898 5901 5904 5906 5908 5910 5912 5914 5916 5917 5919 5921 5922 5923 5924 5923 5923 5922 5920 5918 5913 5909
5880 5879 5877 5875 5875 5879 5879 5880 5882 5880 5878 5876 5877 5880 5879 5877 5879 5881 5883 5883 5883 5884 5886 5887 5890 5892 5895 5897 5900 5904 5907 5908 5910 5912 5914 5917 5918 5920 5921 5923 5925 5924 5924 5924 5922 5921 5918 5914 5908
5880 5879 5877 5876 5872 5876 5880 5880 5882 5880 5878 5878 5878 5880 5881 5879 5881 5882 5883 5883 5884 5885 5886 5888 5889 5890 5894 5897 5900 5904 5907 5909 5912 5913 5914 5917 5918 5920 5922 5923 5925 5925 5924 5925 5923 5921 5919 5916 5912
5880 5879 5877 5877 5878 5878 5879 5880 5881 5881 5879 5880 5879 5881 5882 5882 5882 5883 5883 5883 5884 5885 5885 5887 5888 5889 5894 5897 5901 5904 5907 5910 5912 5913 5915 5917 5919 5921 5922 5924 5925 5925 5925 5924 5923 5922 5921 5919 5916
5880 5880 5879 5878 5878 5878 5878 5881 5881 5882 5881 5881 5880 5881 5882 5883 5883 5884 5883 5883 5883 5883 5884 5887 5888 5891 5895 5898 5901 5904 5908 5909 5911 5913 5914 5917 5919 5921 5923 5923 5925 5925 5925 5925 5923 5922 5921 5919 5918
5879 5880 5880 5879 5879 5879 5880 5881 5881 5881 5883 5883 5882 5882 5882 5883 5884 5885 5883 5882 5882 5883 5885 5888 5890 5891 5894 5896 5900 5904 5907 5909 5911 5913 5914 5916 5919 5922 5923 5923 5924 5925 5925 5926 5923 5923 5920 5920 5919
5879 5880 5880 5879 5880 5880 5881 5882 5881 5882 5882 5882 5883 5883 5883 5884 5885 5886 5885 5883 5884 5884 5886 5890 5892 5893 5895 5896 5899 5904 5908 5910 5911 5914 5916 5918 5919 5921 5923 5924 5925 5925 5925 5925 5924 5923 5922 5921 5920
5879 5880 5881 5880 5881 5881 5881 5881 5881 5881 5880 5881 5882 5882 5882 5884 5885 5887 5885 5885 5885 5886 5888 5890 5893 5895 5897 5899 5901 5904 5907 5910 5913 5916 5917 5918 5920 5922 5922 5923 5923 5924 5926 5926 5925 5924 5923 5922 5921
5877 5879 5880 5880 5881 5882 5881 5881 5880 5880 5881 5880 5879 5881 5883 5884 5884 5885 5887 5886 5887 5888 5889 5891 5894 5896 5898 5900 5903 5906 5908 5911 5914 5916 5917 5918 5921 5921 5921 5923 5923 5923 5924 5926 5926 5925 5924 5923 5922
5876 5878 5879 5881 5881 5882 5883 5882 5881 5881 5880 5879 5877 5879 5881 5883 5885 5886 5887 5887 5886 5889 5891 5892 5894 5896 5898 5900 5903 5905 5908 5910 5913 5915 5917 5920 5922 5922 5922 5921 5921 5923 5924 5926 5927 5926 5925 5924 5924
5874 5876 5878 5880 5880 5881 5881 5882 5882 5881 5880 5880 5879 5878 5881 5881 5883 5886 5887 5888 5888 5888 5892 5894 5895 5897 5899 5901 5903 5905 5908 5910 5913 5915 5918 5920 5922 5922 5921 5921 5922 5924 5925 5926 5926 5925 5925 5925 5924
5872 5873 5876 5876 5878 5880 5880 5881 5882 5881 5880 5882 5880 5879 5879 5880 5882 5883 5886 5888 5889 5888 5891 5893 5895 5898 5898 5901 5904 5905 5907 5909 5912 5914 5917 5919 5921 5921 5920 5921 5922 5923 5924 5925 5924 5924 5924 5925 5925
5869 5870 5872 5873 5875 5877 5877 5879 5877 5879 5879 5879 5881 5880 5878 5880 5882 5882 5882 5885 5888 5889 5891 5893 5894 5896 5899 5901 5903 5905 5907 5910 5912 5914 5916 5917 5919 5919 5920 5921 5921 5923 5923 5924 5924 5924 5924 5924 5925
5867 5868 5869 5870 5871 5874 5872 5875 5874 5875 5877 5876 5878 5880 5879 5878 5880 5881 5882 5885 5887 5888 5890 5892 5893 5896 5898 5901 5903 5905 5907 5910 5912 5913 5914 5916 5917 5919 5920 5921 5921 5922 5922 5923 5924 5924 5924 5924 5926
5865 5866 5867 5868 5868 5871 5868 5870 5873 5872 5873 5874 5874 5876 5879 5879 5878 5879 5880 5883 5885 5887 5889 5890 5892 5894 5897 5899 5901 5903 5905 5907 5909 5911 5913 5915 5916 5919 5920 5920 5921 5921 5921 5924 5924 5924 5925 5925 5925
5862 5864 5865 5864 5865 5867 5866 5867 5869 5868 5869 5870 5870 5871 5872 5875 5877 5876 5877 5879 5881 5883 5886 5888 5889 5892 5894 5896 5898 5902 5904 5906 5909 5911 5912 5913 5915 5916 5917 5918 5919 5920 5922 5923 5923 5924 5924 5924 5924
5861 5861 5861 5861 5861 5862 5863 5864 5865 5865 5866 5865 5866 5866 5868 5869 5870 5872 5872 5874 5875 5877 5881 5885 5887 5888 5892 5893 5895 5899 5902 5904 5905 5908 5910 5912 5913 5914 5915 5917 5918 5919 5920 5921 5922 5923 5924 5923 5923
5858 5859 5859 5858 5857 5857 5857 5859 5860 5861 5862 5862 5861 5862 5863 5864 5865 5867 5868 5870 5871 5872 5875 5879 5884 5885 5887 5891 5893 5895 5898 5902 5904 5906 5909 5911 5912 5913 5915 5915 5917 5917 5918 5919 5920 5921 5922 5922 5923
5854 5853 5854 5854 5853 5853 5853 5854 5855 5856 5857 5857 5857 5857 5858 5859 5860 5862 5863 5865 5866 5869 5871 5874 5878 5881 5884 5888 5890 5892 5895 5898 5902 5903 5905 5908 5910 5912 5914 5914 5915 5915 5916 5918 5918 5919 5920 5920 5921
5849 5849 5849 5849 5849 5848 5848 5849 5850 5850 5851 5851 5852 5851 5852 5854 5855 5857 5859 5860 5861 5863 5867 5870 5872 5876 5879 5882 5886 5888 5891 5894 5896 5898 5901 5904 5907 5908 5910 5912 5913 5914 5914 5917 5917 5917 5918 5918 5919
Wind_Speed
4 5 5 2 3 2 6 9 7 6 5 5 3 4 4 5 6 7 8 9 14 17 18 18 17 15 14 12 10 15 19 16 12 9 6 6 6 6 3 2 5 3 1 1 5 5 5 6 5
4 5 4 5 4 3 5 9 8 5 5 4 3 4 4 5 6 8 8 7 12 16 21 19 19 15 15 14 10 16 22 16 12 7 8 7 6 5 3 3 3 1 1 5 5 4 7 8 6
7 8 8 2 3 3 3 7 8 4 4 4 3 3 4 6 8 9 8 7 10 13 19 20 18 16 17 16 11 15 23 18 14 11 8 7 6 5 5 4 2 1 4 5 5 7 7 6 6
6 6 6 2 4 2 4 8 8 4 3 4 4 4 5 6 8 9 9 7 7 12 14 17 18 16 14 14 12 19 21 19 15 11 8 7 6 6 4 4 2 4 5 6 8 6 7 7 8
5 8 9 4 2 3 7 7 7 5 3 3 3 4 5 6 8 9 7 6 6 8 14 16 18 18 16 14 13 22 19 15 12 8 8 6 7 5 4 4 3 6 9 7 7 8 8 10 14
8 13 10 10 6 4 5 4 8 6 3 5 3 4 5 4 7 9 7 6 6 5 11 15 18 19 19 18 17 17 18 12 9 10 9 10 6 5 5 3 6 9 7 9 9 9 11 13 16
7 15 5 13 2 3 4 2 6 5 3 5 4 5 7 5 9 7 5 6 6 4 12 16 19 19 20 18 8 18 16 14 12 10 6 9 6 5 3 5 7 9 8 11 13 11 11 11 15
8 7 9 4 5 7 8 3 3 7 4 4 5 6 5 5 9 6 4 7 6 7 11 15 17 17 17 18 14 14 14 12 7 6 8 9 8 4 4 6 8 9 11 10 11 10 11 13 16
8 7 8 13 15 9 8 6 5 5 3 5 7 7 7 6 7 9 7 6 4 5 11 16 18 18 18 22 18 14 15 10 5 7 8 9 8 4 6 8 7 10 9 10 11 12 15 17 20
5 6 7 8 14 8 8 7 4 4 4 9 7 6 10 9 6 9 7 3 3 5 11 17 19 18 18 19 19 17 16 12 11 11 9 10 7 6 6 8 7 10 9 8 11 13 17 23 25
5 6 3 11 13 15 7 6 4 7 7 10 7 7 10 11 8 4 3 3 2 4 10 18 17 16 15 18 18 18 16 12 10 11 10 9 8 8 8 7 10 10 5 6 11 14 19 25 25
5 4 8 4 18 18 9 8 0 9 9 10 9 7 9 11 9 6 1 6 6 6 9 16 17 19 18 16 23 20 15 13 12 13 11 9 8 7 7 9 8 8 4 6 10 13 19 26 26
5 3 3 5 9 15 9 10 6 9 9 9 13 9 7 7 7 5 2 2 8 4 10 12 10 18 19 18 23 19 16 12 15 14 10 9 8 7 8 7 6 6 3 7 9 13 19 25 20
4 3 5 9 11 6 6 8 5 4 7 7 10 8 4 3 3 3 1 2 6 6 10 15 11 19 20 19 21 18 17 13 17 14 11 9 8 6 7 5 5 6 5 7 8 13 18 20 17
3 5 4 5 9 8 11 6 3 7 8 7 10 10 6 2 1 1 2 3 2 6 14 17 16 17 18 20 18 16 16 16 18 13 10 9 9 6 5 5 4 3 5 6 6 12 15 17 15
6 6 6 8 11 9 10 7 11 4 4 3 7 10 9 7 4 1 4 5 4 6 18 17 17 19 14 16 18 18 19 20 15 14 11 9 9 7 7 5 5 3 4 4 6 11 14 17 14
9 6 6 9 12 11 12 9 10 10 5 6 4 7 10 8 5 2 4 6 7 8 12 14 17 18 17 18 20 20 19 17 15 13 10 7 5 8 8 4 5 3 4 3 3 9 11 13 12
11 8 7 10 11 10 10 12 7 9 7 8 7 3 5 8 9 3 5 8 7 8 12 14 17 20 16 19 20 20 16 14 11 12 9 6 7 5 6 7 7 3 4 2 3 8 8 9 7
14 11 12 16 11 9 8 7 10 5 7 6 5 9 3 9 10 8 6 9 11 8 9 14 14 15 17 15 18 17 14 13 10 11 10 4 7 3 7 8 5 6 3 4 5 6 6 6 5
14 13 11 12 8 4 6 7 6 8 8 7 5 13 9 8 9 11 9 10 11 11 10 15 17 13 17 21 17 17 15 12 11 12 8 8 8 5 7 5 3 5 6 6 4 5 6 6 5
16 17 16 14 12 10 9 7 10 10 11 6 2 10 11 8 12 14 13 10 11 11 11 14 17 15 14 20 16 14 14 12 12 8 9 8 8 8 7 4 3 5 5 5 4 4 5 6 3
18 19 15 18 14 11 13 12 10 12 11 6 9 9 17 7 12 13 14 15 14 14 14 14 13 15 11 17 15 16 14 13 12 10 7 10 10 9 7 7 4 4 5 7 5 4 7 6 2
20 16 16 17 16 14 14 13 16 14 14 10 6 11 9 15 15 12 12 17 17 17 16 15 14 14 13 13 12 12 12 12 11 10 11 11 10 9 9 8 8 7 5 5 4 7 7 4 0
18 16 15 15 14 11 21 18 17 17 17 18 13 9 10 13 15 15 14 12 15 18 18 17 17 13 12 14 14 14 12 10 13 11 10 9 9 7 6 7 10 9 7 4 4 6 3 1 2
8 11 16 16 15 13 20 18 18 18 17 17 19 17 13 12 15 18 17 15 14 16 20 20 17 18 14 11 12 11 9 9 8 10 9 9 8 7 6 7 8 8 7 6 6 5 2 2 3
12 11 14 17 15 17 22 19 17 21 22 22 23 24 22 20 18 19 21 19 17 18 21 22 20 18 18 15 14 13 13 14 12 13 11 10 8 8 6 7 7 7 8 7 6 6 5 5 3
11 13 15 16 15 16 20 19 19 21 19 16 19 22 23 24 24 23 21 18 22 25 19 20 22 20 21 20 19 18 18 17 15 12 12 11 10 10 8 6 7 8 8 9 9 7 7 7 6
15 15 15 16 16 17 18 17 18 18 16 13 16 18 18 18 18 20 19 19 23 22 25 20 21 21 21 22 20 19 19 17 16 16 15 11 11 12 12 9 8 9 10 9 8 8 8 9 9
17 17 16 18 17 18 20 19 16 14 13 15 17 17 17 17 18 15 19 22 19 20 23 26 23 23 20 23 23 21 20 19 18 17 16 14 12 13 12 12 12 13 13 11 10 10 12 11 11
17 17 18 19 20 20 21 21 16 17 17 18 18 20 18 18 18 16 17 21 20 19 22 26 24 27 25 24 26 24 22 21 20 19 19 18 16 14 13 15 15 15 12 11 11 12 14 12 12
Wind_Direction
54 47 75 343 45 30 19 7 44 52 65 91 98 123 120 125 151 168 166 187 187 190 189 183 182 194 195 200 204 205 194 188 194 204 200 168 124 96 81 92 59 64 266 58 63 78 88 84 67
22 360 354 318 267 235 355 10 37 33 88 76 71 115 132 134 142 159 168 179 188 186 195 186 183 182 188 194 191 198 195 187 180 179 182 166 124 98 79 83 91 121 18 56 66 66 56 47 45
1 16 15 273 219 266 287 5 23 38 96 70 72 113 136 143 154 164 167 177 189 191 188 187 179 179 183 199 213 197 185 179 167 201 170 153 117 97 114 116 92 331 32 52 53 47 44 39 32
358 358 3 326 256 116 30 28 9 7 99 100 109 134 157 155 160 173 174 177 184 201 195 182 175 186 186 187 209 186 181 180 177 168 183 180 160 108 119 88 55 21 36 49 44 35 34 31 15
2 349 320 263 250 105 32 27 1 347 51 69 107 134 146 167 159 172 176 190 196 168 190 183 176 185 186 185 167 164 170 162 184 168 168 159 110 105 85 67 20 31 34 31 33 17 26 18 11
335 341 309 207 221 112 353 25 6 25 22 62 102 128 121 161 163 165 180 194 201 187 183 183 181 185 184 184 190 176 168 168 179 183 177 121 110 106 68 52 35 35 21 36 29 23 21 14 9
339 346 282 187 210 215 38 325 358 28 6 53 130 118 111 152 158 151 173 197 182 175 179 176 184 190 190 178 198 171 171 178 183 201 141 119 124 93 80 53 39 35 35 35 26 23 14 360 354
347 360 48 223 211 156 69 66 30 360 12 73 110 107 110 142 137 145 178 180 189 168 176 178 181 189 193 192 183 152 171 177 195 195 139 124 120 115 91 69 48 42 42 39 27 19 4 352 344
349 6 347 218 216 154 89 83 62 11 31 80 105 106 118 120 130 148 152 169 183 185 178 182 178 183 189 195 184 179 176 177 168 158 137 140 123 123 89 72 64 67 50 31 20 13 4 350 333
340 3 27 180 204 128 102 91 79 41 60 96 110 129 129 126 128 125 117 137 177 178 189 190 186 192 192 191 190 186 188 178 166 153 167 141 133 116 94 80 84 77 56 25 22 16 356 347 354
22 2 349 150 191 211 177 157 26 79 80 88 101 132 135 119 105 86 151 7 176 186 180 189 185 193 185 179 186 187 187 183 190 180 174 141 144 132 108 97 84 80 65 34 25 15 356 356 1
34 18 26 178 192 189 190 173 26 84 86 93 119 138 140 111 99 89 319 288 173 147 179 184 197 201 188 192 187 188 176 164 163 173 168 159 150 129 118 96 104 99 71 34 34 15 0 34 46
64 16 42 95 158 175 159 157 148 96 90 107 123 131 118 104 114 120 334 214 204 215 202 193 195 186 187 185 177 180 177 162 168 171 166 172 148 137 114 102 116 110 98 51 30 22 19 37 49
91 59 76 126 131 186 200 165 134 106 114 132 131 148 110 105 131 102 147 175 247 238 202 190 196 172 173 174 176 181 184 192 176 172 174 161 145 137 111 133 122 116 96 61 33 28 24 33 48
136 130 122 108 101 96 138 133 163 116 130 147 135 131 137 123 182 17 119 144 229 221 175 177 170 169 181 174 176 187 184 179 174 166 160 150 153 148 145 142 145 131 93 67 43 34 32 39 47
170 161 168 147 135 144 120 152 168 167 168 141 146 142 147 167 165 279 118 120 108 150 174 175 159 160 173 177 187 194 187 174 167 162 165 164 151 163 166 154 136 147 97 76 45 39 34 38 46
175 184 180 170 153 137 142 130 134 170 171 215 186 152 151 160 176 176 123 109 115 146 167 167 163 147 146 155 157 163 171 170 169 162 164 168 166 180 190 189 180 145 107 77 48 48 40 53 46
183 195 197 168 170 157 158 160 142 184 177 186 189 153 199 164 173 170 154 119 108 132 158 141 163 159 153 162 168 167 167 165 177 160 158 153 131 140 186 196 207 222 116 107 126 77 57 62 45
195 197 195 166 162 158 156 155 184 199 188 213 218 189 51 180 178 172 170 140 124 127 147 157 162 173 177 162 169 172 169 177 172 177 170 153 159 158 172 176 180 235 258 142 115 92 83 87 67
197 193 198 199 239 255 200 185 182 209 204 198 243 216 190 177 195 180 176 152 142 143 152 160 158 174 175 165 169 177 185 181 174 158 173 171 183 163 147 131 143 225 177 133 126 108 120 112 75
212 223 221 235 242 259 260 234 205 206 209 234 248 207 213 236 215 201 187 171 159 156 159 163 172 165 167 176 174 176 180 178 178 169 170 189 190 191 182 155 106 158 200 180 161 122 129 103 66
222 229 236 233 227 245 260 257 238 227 225 200 221 232 230 227 218 204 195 196 177 172 174 171 173 174 173 176 186 195 190 178 181 187 195 192 189 184 171 200 200 193 141 149 159 138 138 124 107
221 225 230 241 250 252 253 254 252 243 246 250 230 247 247 236 245 228 197 199 188 186 188 180 184 178 182 182 188 198 199 187 180 186 185 195 196 181 183 192 203 209 161 164 161 155 150 140 188
221 230 237 249 247 241 250 237 250 254 250 261 268 249 283 240 229 238 236 220 200 194 194 198 192 190 190 186 193 195 196 192 176 184 193 199 216 206 192 188 201 200 180 194 178 163 166 174 294
229 252 268 265 254 237 244 240 233 251 260 264 267 268 249 277 247 250 254 252 227 210 203 203 201 196 189 189 197 199 191 201 205 200 212 209 211 220 201 202 193 186 182 196 184 178 188 273 301
256 276 284 276 259 234 239 246 241 249 257 260 263 265 268 265 263 263 269 256 228 236 215 210 203 210 209 199 205 206 203 210 216 212 223 227 218 226 211 209 202 192 190 200 203 222 242 255 250
267 283 284 287 268 248 246 254 252 257 266 258 254 262 264 268 268 261 275 260 266 230 228 222 215 211 220 217 205 206 212 207 217 230 235 228 242 227 218 219 216 216 210 214 219 227 241 244 234
257 268 274 287 284 278 276 268 267 263 267 256 259 265 263 265 262 266 261 246 240 226 218 237 234 216 220 223 217 205 209 214 212 227 234 228 241 235 228 208 222 227 223 224 234 234 240 245 249
259 271 271 281 284 283 281 280 278 274 263 263 256 262 252 254 255 258 256 247 242 234 228 230 232 230 226 225 216 207 211 213 217 227 244 244 242 232 230 221 228 229 227 225 230 237 239 240 248
262 267 270 272 274 274 276 277 282 278 264 256 255 259 255 252 246 248 237 242 242 240 232 222 229 226 226 229 227 218 213 216 216 221 231 238 240 240 239 234 225 229 237 239 243 242 248 247 251